Regional Weather Roundup
Issued by NWS Mobile, AL

Home | Current Version | Previous Version | Text Only | Print | Product List | Glossary On
Versions: 1 2 3 4 5 6 7 8 9 10 11 12 13 14 15 16 17 18 19 20 21 22 23 24 25 26 27 28 29 30 31 32 33 34 35 36 37 38 39 40 41 42 43 44 45 46 47 48 49 50
000
ASUS44 KMOB 280617
RWRMOB
REGIONAL WEATHER ROUNDUP
NATIONAL WEATHER SERVICE MOBILE AL
100 AM CDT TUE JUL 28 2015

ALZ061>064-280700-
COASTAL ALABAMA


CITY           SKY/WX    TMP DP  RH WIND       PRES   REMARKS
MOBILE REG APT PTCLDY    77  74  90 W3        29.98S
6HR MIN TEMP:  76; 6HR MAX TEMP:  89;

BROOKLEY FIELD PTCLDY    81  73  76 W5        29.97F
6HR MIN TEMP:  80; 6HR MAX TEMP:  89;

GULF SHORES    CLEAR     78  75  91 CALM      29.96S
6HR MIN TEMP:  77; 6HR MAX TEMP:  86;


$$

ALZ051>060-280700-
INTERIOR SOUTHWEST AND SOUTH CENTRAL ALABAMA


CITY           SKY/WX    TMP DP  RH WIND       PRES   REMARKS
ANDALUSIA/OPP  CLEAR     81  73  76 CALM      29.96F
6HR MIN TEMP:  80; 6HR MAX TEMP:  89;

EVERGREEN      CLEAR     76  74  93 CALM      29.97F
6HR MIN TEMP:  76; 6HR MAX TEMP:  89;

FLORALA        CLEAR     75  72  90 CALM      29.98F
6HR MIN TEMP:  75; 6HR MAX TEMP:  85;

GREENVILLE     FAIR      78  73  84 CALM      29.97F
6HR MIN TEMP:  77; 6HR MAX TEMP:  89;


$$

FLZ001>006-280700-
WESTERN FLORIDA PANHANDLE


CITY           SKY/WX    TMP DP  RH WIND       PRES   REMARKS
CRESTVIEW      CLEAR     75  72  90 CALM      29.97S
6HR MIN TEMP:  75; 6HR MAX TEMP:  91;

DESTIN         PTCLDY    85  73  67 NW3       29.95S
6HR MIN TEMP:  85; 6HR MAX TEMP:  89;

DUKE FIELD     FAIR      76  71  82 CALM      29.95F
6HR MIN TEMP:  76; 6HR MAX TEMP:  92;

MARY ESTHER    CLEAR     81  71  73 N5        29.94S
6HR MIN TEMP:  79; 6HR MAX TEMP:  89;

MILTON         PTCLDY    80  73  79 NW3       29.96S
6HR MIN TEMP:  79; 6HR MAX TEMP:  91;

PENSACOLA      CLEAR     82  74  76 W7        29.95S
6HR MIN TEMP:  82; 6HR MAX TEMP:  89;

NAS PENSACOLA  CLEAR     80  74  81 NW3       29.95S
6HR MIN TEMP:  77; 6HR MAX TEMP:  86;

VALPARAISO     CLEAR     81  72  72 NW3       29.95S
6HR MIN TEMP:  81; 6HR MAX TEMP:  89;


$$

...MARINE OBSERVATIONS...

STATION/POSITION TIME  SKY/WX   TEMP    WIND        PRES    VSBY
                                AIR SEA DIR/SP/G
                 (UTC)          (F)     (DEG/KT/KT) (MB)    (MI)
PASCAGOULA       0500            86     250/  3/  4 1014.5S
PETIT BOIS ISL   0500            86     250/  5/  6 1015.1S
E DAUPHIN ISLAND 0600            85     260/  5/  6 1014.3F
MIDDLE BAY LIGHT 0500            85     270/  8     1013.9S
USCG MOBILE BAY  0500            83 85  280/  4/  5 1013.8R
STATE DOCKS      0500            84 87              1014.6R
MEAHER PARK      0600            84     310/  2     1013.9F
12 S ORANGE BCH  0550            85 84  290/  8/  8 1013.6F
WVE H/P(F/S)=  1

PENSACOLA BAY    0500            84 85  300/  3/  4 1014.6S
64 S DAUPHIN ISL 0550            85 87  290/  4/  6 1014.8F
WVE H/P(F/S)=  1

67 S FORT MORGAN 0530            84     290/  2     1014.6S
115 SE PENSACOLA 0550            86 87  280/  8/  8 1014.6R
WVE H/P(F/S)=  1/ 5

MID GULF/42001   0550            84 86  190/  8/ 10 1015.7F
WVE H/P(F/S)=  1/ 5

EAST GULF/42003  0550            83 84  240/ 10/ 12 1015.3S
WVE H/P(F/S)=  2/ 5


$$

...NEARBY LOCATIONS

CITY           SKY/WX    TMP DP  RH WIND       PRES   REMARKS
GULFPORT       CLEAR     78  74  87 CALM      29.96S
6HR MIN TEMP:  78; 6HR MAX TEMP:  88;

BILOXI         CLEAR     82  74  77 CALM      29.96S
6HR MIN TEMP:  80; 6HR MAX TEMP:  87;

PASCAGOULA     CLEAR     75  74  96 CALM      29.97S FOG
6HR MIN TEMP:  75; 6HR MAX TEMP:  87;

HATTIESBURG    CLEAR     78  74  87 CALM      29.98F
6HR MIN TEMP:  77; 6HR MAX TEMP:  93;

LAUREL         CLEAR     75  70  83 CALM      30.00S
6HR MIN TEMP:  73; 6HR MAX TEMP:  91;

MERIDIAN       CLEAR     76  74  93 S3        29.98F
6HR MIN TEMP:  76; 6HR MAX TEMP:  90;

MERIDIAN NAS   CLEAR     79  75  87 CALM      29.98F
6HR MIN TEMP:  78; 6HR MAX TEMP:  88;

MONTGOMERY     CLEAR     80  75  84 CALM      29.97S
6HR MIN TEMP:  80; 6HR MAX TEMP:  91;

MAXWELL AFB    CLEAR     79  76  91 CALM      29.95F
6HR MIN TEMP:  78; 6HR MAX TEMP:  92;

TROY           CLEAR     75  73  93 CALM      29.98S FOG
6HR MIN TEMP:  75; 6HR MAX TEMP:  89;

FORT RUCKER    PTCLDY    78  73  84 N5        29.96R
6HR MIN TEMP:  77; 6HR MAX TEMP:  91;

DALEVILLE      PTCLDY    79  74  87 NW6       29.96S
6HR MIN TEMP:  78; 6HR MAX TEMP:  91;

DOTHAN         PTCLDY    81  74  79 CALM      30.00S
6HR MIN TEMP:  81; 6HR MAX TEMP:  92;


$$

...OTHER SURROUNDING LOCATIONS...

CITY           SKY/WX    TMP DP  RH WIND       PRES   REMARKS
BIRMINGHAM     CLEAR     75  74  96 E3        30.01F
6HR MIN TEMP:  75; 6HR MAX TEMP:  79;

TUSCALOOSA     CLEAR     78  76  93 CALM      29.97F
6HR MIN TEMP:  78; 6HR MAX TEMP:  88;

COLUMBUS GA    PTCLDY    82  71  69 N5        29.96F
6HR MIN TEMP:  82; 6HR MAX TEMP:  92;

PANAMA CITY    NOT AVBL
TALLAHASSEE    CLEAR     79  75  87 CALM      29.95S
6HR MIN TEMP:  79; 6HR MAX TEMP:  87;

BATON ROUGE    CLEAR     78  73  84 CALM      29.98S
6HR MIN TEMP:  78; 6HR MAX TEMP:  92;

NEW ORLEANS    PTCLDY    80  73  79 W5        29.98R
6HR MIN TEMP:  80; 6HR MAX TEMP:  89;

SLIDELL        CLEAR     76  74  93 CALM      29.97S
6HR MIN TEMP:  76; 6HR MAX TEMP:  91;

JACKSON        CLEAR     79  70  74 CALM      29.97S
6HR MIN TEMP:  79; 6HR MAX TEMP:  94;

MCCOMB         NOT AVBL

$$

...SURROUNDING MARINE OBSERVATIONS...

STATION/POSITION TIME  SKY/WX   TEMP    WIND        PRES    VSBY
                                AIR SEA DIR/SP/G
                 (UTC)          (F)     (DEG/KT/KT) (MB)    (MI)
WAVELAND         0500            83 89  260/  4/  4 1015.2R
PASCAGOULA RGN A 0500            85     260/  4/  5 1014.2R
PASCAGOULA PORT  0500               85                N/A
GRAND ISLE       0500            85 90  200/  2/  3 1015.1R
SOUTHWEST PASS   0600            85     220/  1/  2 1015.2S
PILOT STATION E  0500            85 86  100/  1/  3 1015.3R
SHELL BEACH      0500            84 89  210/  3/  3 1014.4R
PANAMA CITY      0500            84 87  330/  5/  7 1013.5R
APALACHICOLA     0500            82 89  300/  1/  5 1013.8S
TYNDALL TOWER C  0600            85     300/ 12/ 13 1013.6F
S APLCHCLA/42036 0550            84 85  350/ 12/ 16 1013.4F
WVE H/P(F/S)=  2/ 3


$$



USA.gov is the U.S. government's official web portal to all federal, state and local government web resources and services.